Regional Weather Roundup
Issued by NWS

Home | Current Version | Previous Version | Graphics & Text | Print | Product List | Glossary On
Versions: 1 2 3 4 5 6 7 8 9 10 11 12 13 14 15 16 17 18 19 20 21 22 23 24 25 26 27 28 29 30 31 32 33 34 35 36 37 38 39 40 41 42 43 44 45 46 47 48 49 50
000
ASUS43 KFSD 302010
RWRSD

WEATHER ROUNDUP FOR SOUTH DAKOTA
NATIONAL WEATHER SERVICE SIOUX FALLS SD
300 PM CDT TUE SEP 30 2014

NOTE: "FAIR" INDICATES FEW OR NO CLOUDS BELOW 12,000 FEET WITH NO
SIGNIFICANT WEATHER AND/OR OBSTRUCTIONS TO VISIBILITY.


SDZ001>005-009-010-012>017-302100-
NORTHWEST AND NORTH CENTRAL SOUTH DAKOTA

CITY           SKY/WX    TMP DP  RH WIND       PRES   REMARKS
BUFFALO          N/A     53  51  93 NW12      29.44F
FAITH            N/A     54  53  97 MISG      29.38S
MOBRIDGE       CLOUDY    68  54  60 SE26G40   29.39F
$$

SDZ012>016-024>037-041>051-057-063-072>074-302100-
SOUTHWEST AND SOUTH CENTRAL SOUTH DAKOTA

CITY           SKY/WX    TMP DP  RH WIND       PRES   REMARKS
RAPID CTY ARPT PTSUNNY   62  48  60 NW25G33   29.52R
PIERRE         LGT RAIN  65  51  60 S25G35    29.44S
CUSTER         CLOUDY    51  43  74 W22G31    29.63R
ELLSWORTH AFB  MOSUNNY   61  50  68 NW26G37   29.51R
PHILIP         PTSUNNY   66  53  63 W29G36    29.44R
PINE RIDGE     PTSUNNY   64  47  53 W32G44    29.61S
WINNER         CLOUDY    72  45  37 SW30G41   29.55F
$$

SDZ004>011-016>023-039-040-302100-
NORTHEAST SOUTH DAKOTA

CITY           SKY/WX    TMP DP  RH WIND       PRES   REMARKS
ABERDEEN       CLOUDY    65  58  78 SE24G31   29.58F
WATERTOWN      CLOUDY    57  53  86 SE14G21   29.70F
SISSETON         N/A     49  48  97 SE13G25   29.73F
$$

SDZ017-020-022-023-036>040-048>070-302100-
SOUTHEAST SOUTH DAKOTA

CITY           SKY/WX    TMP DP  RH WIND       PRES   REMARKS
SIOUX FALLS    CLOUDY    65  61  87 SE15G26   29.73F
HURON          MOSUNNY   71  60  68 SE22G36   29.57F
CHAMBERLAIN    PTSUNNY   71  47  43 S22G33    29.55R
MITCHELL       SUNNY     79  51  37 S16G25    29.61F
YANKTON        MOSUNNY   73  63  68 SE23G31   29.69F
$$

ABBREVIATIONS USED IN REMARKS
   TC - TEMPERATURE IN CELSIUS
  WCI - WIND CHILL INDEX
   HX - HEAT INDEX
  VSB - VISIBILITY




USA.gov is the U.S. government's official web portal to all federal, state and local government web resources and services.